Wind_Speed
46 49 49 52 56 53 54 53 52 51 50 49 47 44 43 42 41 42 42 43 44 45 46 46 47 47 47 48
39 43 45 49 51 50 52 50 49 48 48 47 47 43 43 43 42 43 44 44 44 46 47 49 49 49 49 51
35 38 41 44 47 47 51 49 48 47 46 46 47 45 43 44 45 44 46 46 47 48 49 50 51 52 53 53
30 35 38 39 42 45 48 49 47 47 47 46 46 46 44 44 46 47 47 49 50 51 52 53 55 54 56 57
24 28 31 35 38 41 45 49 48 48 47 46 47 47 47 47 48 50 51 51 52 54 55 56 60 58 60 61
27 29 30 33 36 37 39 46 50 50 51 51 50 50 51 52 53 54 55 56 56 58 59 62 63 63 64 65
18 24 25 33 38 38 40 41 45 53 53 56 59 58 58 58 59 59 61 61 61 63 66 66 67 69 69 70
13 21 26 31 37 41 40 41 47 53 55 55 58 63 65 64 66 66 67 64 66 67 70 69 72 71 73 76
16 20 24 28 36 40 49 49 52 52 56 58 60 58 60 59 60 64 68 69 70 66 67 72 71 70 73 75
21 22 24 28 34 38 45 56 64 65 65 64 64 68 70 68 69 70 71 72 73 74 76 76 76 75 78 79
27 29 31 32 36 41 43 47 54 59 63 70 75 78 78 76 77 78 77 80 78 78 81 84 86 86 87 88
32 32 32 32 37 45 50 48 54 56 57 61 68 72 74 77 81 84 88 89 89 91 91 88 91 91 92 91
38 39 36 41 48 52 53 57 60 64 62 65 65 67 67 69 76 82 84 88 83 89 81 87 87 83 83 88
37 41 44 51 54 53 53 57 65 69 73 73 74 73 69 69 76 77 80 76 78 83 76 77 80 80 77 79
42 40 45 56 60 61 64 64 66 70 74 79 81 78 76 75 76 83 86 79 86 80 75 68 73 79 74 66
53 58 61 63 67 68 71 75 74 75 80 82 83 82 83 85 89 88 87 88 93 84 80 76 78 74 72 71
67 63 70 76 82 81 81 80 79 79 85 90 93 90 86 90 95 97 89 97 101 94 87 76 75 74 73 75
Wind_Direction
163 169 175 179 183 187 192 196 199 203 204 209 213 213 216 220 223 226 230 232 234 237 240 243 247 251 255 258
164 170 177 183 185 190 195 199 203 207 210 211 216 218 222 226 229 230 233 236 240 242 243 246 249 252 254 258
167 172 181 186 189 195 200 203 208 211 214 217 221 224 226 230 235 237 238 239 241 244 247 250 252 254 258 262
172 179 188 191 195 203 205 209 213 216 219 221 226 229 231 234 237 239 242 244 246 248 250 252 255 260 262 264
180 185 198 199 204 210 213 216 220 223 227 230 232 234 235 238 240 242 244 248 250 250 253 256 258 260 263 267
181 193 204 209 216 221 226 224 229 231 231 235 237 239 240 242 244 245 247 249 250 253 255 256 260 263 265 268
209 207 219 221 224 224 238 240 240 242 244 244 245 245 244 246 248 250 251 252 255 257 258 261 263 266 268 271
246 242 239 241 236 232 239 245 247 248 251 250 249 249 252 255 256 255 256 258 260 261 263 264 265 266 269 271
281 261 253 247 248 247 239 242 244 246 250 250 250 252 254 257 260 262 263 263 264 269 268 268 268 269 270 270
302 287 278 276 268 257 246 244 246 248 250 252 252 252 254 256 258 259 260 261 261 262 263 266 267 268 268 268
338 321 298 295 278 266 263 262 259 254 253 253 253 254 255 255 257 259 258 257 260 260 264 265 266 266 267 270
323 320 312 308 294 283 276 273 267 268 264 264 260 257 257 258 260 259 259 261 262 261 261 266 266 267 269 272
323 322 317 316 302 294 293 285 276 276 268 263 263 264 262 262 261 262 261 261 260 261 262 264 265 267 271 269
323 317 318 315 309 299 295 292 286 281 277 272 272 267 267 261 259 259 260 261 260 263 261 262 267 268 265 269
317 312 315 312 308 305 299 296 287 283 278 277 277 275 271 268 264 259 262 260 263 259 265 263 260 265 270 270
310 307 309 312 310 304 303 296 286 279 277 271 271 272 274 267 263 264 260 262 261 263 263 259 262 264 267 270
307 304 305 306 307 305 299 300 292 281 274 272 270 267 266 266 263 262 265 260 261 261 264 268 266 260 258 259
Height
10805 10813 10821 10830 10838 10846 10854 10860 10867 10873 10878 10884 10888 10892 10895 10898 10900 10903 10906 10908 10911 10912 10913 10915 10916 10917 10918 10918
10817 10824 10830 10836 10844 10851 10857 10863 10869 10873 10878 10882 10886 10889 10892 10895 10897 10899 10901 10903 10905 10906 10908 10908 10910 10910 10911 10910
10826 10833 10838 10843 10849 10855 10859 10864 10869 10873 10877 10880 10883 10886 10888 10890 10892 10894 10896 10897 10898 10899 10900 10901 10901 10901 10901 10902
10835 10840 10844 10849 10853 10858 10861 10864 10868 10871 10874 10876 10880 10882 10883 10885 10887 10888 10889 10890 10891 10893 10893 10892 10891 10895 10891 10891
10843 10848 10850 10853 10856 10859 10862 10864 10868 10869 10871 10873 10875 10877 10877 10879 10880 10880 10881 10883 10885 10883 10884 10884 10881 10884 10881 10881
10845 10847 10851 10855 10859 10861 10862 10862 10865 10866 10867 10868 10869 10869 10870 10871 10872 10872 10874 10873 10875 10874 10875 10871 10871 10872 10871 10869
10846 10849 10852 10853 10854 10857 10859 10860 10860 10861 10861 10861 10862 10862 10861 10862 10862 10863 10862 10864 10866 10865 10860 10862 10860 10859 10859 10857
10849 10850 10851 10852 10852 10852 10852 10852 10854 10852 10853 10853 10853 10850 10850 10853 10853 10852 10850 10856 10852 10850 10849 10851 10845 10847 10846 10843
10847 10847 10846 10845 10846 10847 10849 10844 10841 10840 10840 10842 10840 10842 10839 10841 10839 10838 10839 10841 10839 10840 10836 10830 10831 10833 10829 10825
10845 10844 10842 10841 10841 10839 10834 10831 10830 10830 10830 10830 10828 10825 10825 10826 10823 10824 10824 10822 10824 10820 10818 10819 10816 10819 10811 10809
10838 10837 10835 10834 10831 10824 10823 10825 10822 10819 10818 10816 10814 10812 10811 10812 10808 10806 10805 10798 10805 10805 10802 10801 10797 10797 10793 10793
10833 10831 10827 10823 10819 10815 10813 10815 10808 10806 10804 10800 10797 10796 10795 10794 10789 10785 10782 10784 10786 10782 10780 10783 10776 10779 10776 10779
10822 10821 10819 10814 10807 10802 10799 10793 10794 10790 10788 10782 10778 10778 10779 10778 10771 10764 10764 10758 10765 10752 10769 10758 10757 10765 10762 10755
10812 10809 10806 10801 10793 10788 10783 10780 10772 10768 10764 10762 10760 10757 10760 10764 10750 10744 10739 10745 10740 10734 10746 10748 10743 10740 10742 10738
10795 10792 10791 10787 10782 10771 10762 10763 10754 10746 10741 10736 10733 10737 10742 10741 10734 10725 10715 10724 10709 10720 10727 10739 10727 10717 10724 10730
10778 10771 10770 10766 10760 10755 10746 10738 10733 10726 10715 10711 10708 10708 10710 10710 10701 10700 10701 10695 10685 10698 10708 10709 10705 10710 10709 10707
10765 10758 10750 10743 10734 10728 10722 10716 10708 10699 10693 10688 10682 10677 10680 10679 10670 10667 10677 10673 10656 10669 10681 10689 10700 10694 10689 10682